Location: G�migny
(47.9646°N, 1.6950°E)
Time: 02:04:51
(UTC+00:00)

STARLINK-41 - Pass Details

Date: 23 October 2019
Orbit: 548 x 551 km, 53.0° (Epoch: 15 November)

Event Time Altitude Azimuth Distance (km) Brightness Sun altitude
Rises 18:36:13 0° 292° (WNW) 2,720 8.5 -18.3°
Reaches altitude 10° 18:38:31 10° 298° (WNW) 1,825 7.3 -18.7°
Maximum altitude 18:42:33 50° 14° (NNE) 704 4.0 -19.4°
Enters shadow 18:43:18 44° 51° (NE) 770 4.0 -19.5°
